Location: La Brionne
(46.1728°N, 1.7849°E)
Time: 22:03:28
(UTC+00:00)

CENTAUR R/B - Pass Details

Date: 16 June 2021
Orbit: 740 x 1447 km, 63.4° (Epoch: 17 July)

Event Time Altitude Azimuth Distance (km) Brightness Sun altitude
Rises 21:56:55 0° 255° (WSW) 3,505 5.6 -15.6°
Reaches altitude 10° 21:59:30 10° 264° (W) 2,661 5.1 -15.8°
Maximum altitude 22:05:12 35° 329° (NNW) 1,655 4.4 -16.2°
Drops below altitude 10° 22:11:53 10° 33° (NNE) 3,136 5.6 -16.7°
Sets 22:15:12 0° 42° (NE) 4,217 6.1 -16.9°
